This is the latest recevied weather packets stored in our database for station/object KC0RPY. If no packets are shown the sender has not sent any weather packets the latest 10 day(s).
| Time | Temp. | Humidity | Pressure | Rain* | Wind** | Luminosity | Snow |
|---|---|---|---|---|---|---|---|
| 1777917249 | 25° C | 49% | 1004.1 hPa | 0 mm | - | 764 W/m² | - |
| 1777916947 | 25° C | 48% | 1004.4 hPa | 0 mm | - | 756 W/m² | - |
| 1777916645 | 24.44° C | 48% | 1004.1 hPa | 0 mm | - | 584 W/m² | - |
| 1777916342 | 24.44° C | 49% | 1004.4 hPa | 0 mm | - | 855 W/m² | - |
| 1777916038 | 24.44° C | 48% | 1004.1 hPa | 0 mm | - | 784 W/m² | - |
| 1777915735 | 25° C | 49% | 1004.4 hPa | 0 mm | - | 810 W/m² | - |
| 1777915432 | 24.44° C | 49% | 1004.1 hPa | 0 mm | - | 796 W/m² | - |
| 1777915127 | 23.89° C | 50% | 1004.1 hPa | 0 mm | - | 817 W/m² | - |
| 1777914825 | 23.89° C | 51% | 1004.9 hPa | 0 mm | - | 816 W/m² | - |
| 1777914522 | 24.44° C | 51% | 1004.4 hPa | 0 mm | - | 814 W/m² | - |
| 1777914218 | 24.44° C | 49% | 1004.9 hPa | 0 mm | - | 842 W/m² | - |
| 1777913915 | 23.89° C | 51% | 1004.4 hPa | 0 mm | - | 853 W/m² | - |
| 1777913612 | 23.89° C | 49% | 1004.9 hPa | 0 mm | - | 857 W/m² | - |
| 1777913308 | 23.33° C | 50% | 1004.4 hPa | 0 mm | - | 828 W/m² | - |
| 1777913005 | 23.33° C | 51% | 1004.4 hPa | 0 mm | - | 830 W/m² | - |
| 1777912701 | 23.33° C | 50% | 1004.4 hPa | 0 mm | - | 868 W/m² | - |
| 1777912397 | 23.33° C | 50% | 1004.9 hPa | 0 mm | - | 898 W/m² | - |
| 1777912094 | 23.33° C | 51% | 1004.9 hPa | 0 mm | - | 901 W/m² | - |
| 1777911789 | 23.33° C | 52% | 1004.4 hPa | 0 mm | - | 911 W/m² | - |
| 1777911486 | 22.78° C | 52% | 1004.4 hPa | 0 mm | - | 907 W/m² | - |
| 1777911183 | 22.78° C | 52% | 1004.4 hPa | 0 mm | - | 885 W/m² | - |
| 1777910881 | 22.22° C | 52% | 1004.9 hPa | 0 mm | - | 889 W/m² | - |
| 1777910577 | 22.22° C | 53% | 1004.4 hPa | 0 mm | - | 627 W/m² | - |
| 1777910274 | 22.22° C | 52% | 1004.4 hPa | 0 mm | - | 880 W/m² | - |
| 1777909971 | 22.22° C | 53% | 1004.9 hPa | 0 mm | - | 796 W/m² | - |
* Rain latest hour (hover to see other rain measurements)
** Current wind speed in m/s (hover to see current wind gust speed)